Regional Weather Roundup
Issued by NWS Spokane, WA

Home | Current Version | Previous Version | Text Only | Print | Product List | Glossary On
Versions: 1 2 3 4 5 6 7 8 9 10 11 12 13 14 15 16 17 18 19 20 21 22 23 24 25 26 27 28 29 30 31 32 33 34 35 36 37 38 39 40 41 42 43 44 45 46 47 48 49 50
000
NZUS01 KOTX 260410
RWROTX
EASTERN WASHINGTON/NORTHERN IDAHO ROUNDUP
NATIONAL WEATHER SERVICE, SPOKANE WA
900 PM PDT SAT OCT 25 2014

Note: "fair" indicated few or no clouds below 12,000 feet with no
significant weather and/or obstructions to visibility.

...NORTHEAST WASHINGTON AND NORTHERN IDAHO PANHANDLE...

CITY           SKY/WX    TMP DP  RH WIND       PRES   REMARKS
SPOKANE INTL   CLOUDY    58  44  60 S23G35    29.53S
SPOKANE DOWNTO CLOUDY    60  44  55 SW16G28   29.55R
COEUR D ALENE  CLOUDY    59  45  58 SW21G26   29.54S
DEER PARK      CLOUDY    55  46  71 SE10      29.54R
SANDPOINT      CLOUDY    48  48 100 NE5       29.56F

...SOUTHEAST WASHINGTON AND SOUTHERN IDAHO PANHANDLE...

CITY           SKY/WX    TMP DP  RH WIND       PRES   REMARKS
WALLA WALLA    CLOUDY    64  44  48 S18       29.63R
PULLMAN/MOSCOW CLOUDY    58  40  51 S20       29.64R
LEWISTON       CLOUDY    62  43  49 SW28G48   29.61R
LOWELL           N/A     49  47  93 N3        29.65R

...COLUMBIA BASIN...

CITY           SKY/WX    TMP DP  RH WIND       PRES   REMARKS
EPHRATA        CLOUDY    51  49  92 SW6       29.46R
MOSES LAKE     CLOUDY    58  47  66 S22       29.47R
TRI CITIES     CLOUDY    63  46  54 SW18G31   29.59R
HERMISTON      MOCLDY    63  43  48 SW17G28   29.64R
PENDLETON      CLOUDY    60  43  53 SW17      29.66R

...EAST SLOPES CASCADES...

CITY           SKY/WX    TMP DP  RH WIND       PRES   REMARKS
THE DALLES     CLOUDY    57  44  62 SW16      29.74R
YAKIMA         CLOUDY    57  46  66 S22G36    29.51R
ELLENSBURG     CLOUDY    55  46  71 S17       29.46R
WENATCHEE      CLOUDY    56  46  69 E16       29.42R
OMAK           CLOUDY    49  46  90 S10       29.40F

...SOUTHERN BRITISH COLUMBIA...

CITY           SKY/WX    TMP DP  RH WIND       PRES   REMARKS
PENTICTON      LGT RAIN  50  46  87 E3        29.37F
CRANBROOK      RAIN      43  41  93 SE10      29.56S FOG

...WESTERN MONTANA...

CITY           SKY/WX    TMP DP  RH WIND       PRES   REMARKS
MISSOULA       PTCLDY    45  42  89 CALM      29.69R

...NEIGHBORING CITIES...

CITY           SKY/WX    TMP DP  RH WIND       PRES   REMARKS
SEATTLE        CLOUDY    53  48  83 SW26G43   29.53R
CALGARY        PTCLDY    39  30  70 SE10      29.45F



USA.gov is the U.S. government's official web portal to all federal, state and local government web resources and services.